TimeAEDT,TemperatureF,Dew PointF,Humidity,Sea Level PressureIn,VisibilityMPH,Wind Direction,Wind SpeedMPH,Gust SpeedMPH,PrecipitationIn,Events,Conditions,WindDirDegrees,DateUTC
12:00 AM,63,49,51,30.04,19,SE,6.9,,,,Partly Cloudy,140,2013-03-15 13:00:00
12:00 AM,62.6,50.0,63,30.04,-9999.0,SE,6.9,-,N/A,,Clear,140,2013-03-15 13:00:00
12:30 AM,62.6,48.2,59,30.04,6.2,SE,8.1,-,N/A,,Mostly Cloudy,140,2013-03-15 13:30:00
1:00 AM,62.6,50.0,63,30.01,-9999.0,SSE,6.9,-,N/A,,Clear,160,2013-03-15 14:00:00
1:30 AM,62.6,48.2,59,30.01,-9999.0,SSE,9.2,-,N/A,,Clear,150,2013-03-15 14:30:00
2:00 AM,61,49,56,30.01,,SSE,6.9,,,,,150,2013-03-15 15:00:00
2:00 AM,60.8,50.0,68,30.01,-9999.0,SSE,6.9,-,N/A,,Clear,150,2013-03-15 15:00:00
2:30 AM,60.8,50.0,68,30.01,-9999.0,SSE,5.8,-,N/A,,Clear,150,2013-03-15 15:30:00
3:00 AM,60,50,60,29.99,19,Calm,Calm,,,,Partly Cloudy,,2013-03-15 16:00:00
3:00 AM,59.0,50.0,72,29.98,-9999.0,Calm,Calm,-,N/A,,Clear,0,2013-03-15 16:00:00
3:30 AM,59.0,50.0,72,29.98,-9999.0,Calm,Calm,-,N/A,,Clear,0,2013-03-15 16:30:00
4:00 AM,59.0,51.8,77,29.95,6.2,West,5.8,-,N/A,,Unknown,280,2013-03-15 17:00:00
4:30 AM,59.0,51.8,77,29.98,-9999.0,West,8.1,-,N/A,,Clear,280,2013-03-15 17:30:00
5:00 AM,58,52,73,29.96,,WNW,5.8,,,,,290,2013-03-15 18:00:00
5:00 AM,59.0,51.8,77,29.95,-9999.0,WNW,5.8,-,N/A,,Clear,290,2013-03-15 18:00:00
5:30 AM,59.0,51.8,77,29.95,-9999.0,West,5.8,-,N/A,,Clear,280,2013-03-15 18:30:00
6:00 AM,59,52,69,29.95,19,WNW,1.2,,,,Partly Cloudy,300,2013-03-15 19:00:00
6:00 AM,59.0,51.8,77,29.95,-9999.0,WNW,1.2,-,N/A,,Clear,300,2013-03-15 19:00:00
6:30 AM,59.0,51.8,77,29.95,6.2,West,4.6,-,N/A,,Mostly Cloudy,260,2013-03-15 19:30:00
7:00 AM,59.0,51.8,77,29.95,6.2,NNW,5.8,-,N/A,,Mostly Cloudy,340,2013-03-15 20:00:00
7:30 AM,59.0,51.8,77,29.95,6.2,ENE,2.3,-,N/A,,Mostly Cloudy,60,2013-03-15 20:30:00
8:00 AM,59,52,69,29.96,,WSW,6.9,,,,,250,2013-03-15 21:00:00
8:00 AM,59.0,51.8,77,29.95,6.2,WSW,6.9,-,N/A,Rain,Light Rain Showers,250,2013-03-15 21:00:00
8:30 AM,59.0,53.6,82,29.98,6.2,WSW,5.8,-,N/A,Rain,Light Rain Showers,240,2013-03-15 21:30:00
9:00 AM,60,53,71,29.99,19,West,8.1,,,Rain,Light Rain Showers,270,2013-03-15 22:00:00
9:00 AM,60.8,53.6,77,29.98,6.2,West,8.1,-,N/A,Rain,Light Rain Showers,270,2013-03-15 22:00:00
9:30 AM,59.0,55.4,88,29.98,6.2,West,8.1,-,N/A,Rain,Light Rain,260,2013-03-15 22:30:00
10:00 AM,60.8,55.4,82,29.98,6.2,West,6.9,-,N/A,,Mostly Cloudy,270,2013-03-15 23:00:00
10:30 AM,62.6,53.6,72,29.98,6.2,West,8.1,-,N/A,,Mostly Cloudy,260,2013-03-15 23:30:00
11:00 AM,64,53,58,29.98,,WSW,9.2,,,,,250,2013-03-16 00:00:00
11:00 AM,64.4,53.6,68,29.98,6.2,WSW,9.2,-,N/A,,Mostly Cloudy,250,2013-03-16 00:00:00
11:30 AM,66.2,51.8,60,29.98,6.2,SW,9.2,-,N/A,,Mostly Cloudy,220,2013-03-16 00:30:00
12:00 PM,67,51,45,29.97,19,WSW,9.2,,,,Partly Cloudy,240,2013-03-16 01:00:00
12:00 PM,66.2,50.0,56,29.98,6.2,WSW,9.2,-,N/A,,Mostly Cloudy,240,2013-03-16 01:00:00
12:30 PM,68.0,50.0,52,29.95,6.2,SW,11.5,-,N/A,,Mostly Cloudy,220,2013-03-16 01:30:00
1:00 PM,69.8,48.2,46,29.95,6.2,WSW,11.5,-,N/A,,Mostly Cloudy,240,2013-03-16 02:00:00
1:30 PM,71.6,48.2,43,29.92,6.2,SW,12.7,-,N/A,,Mostly Cloudy,230,2013-03-16 02:30:00
2:00 PM,74,46,26,29.92,,West,12.7,,,,,270,2013-03-16 03:00:00
2:00 PM,73.4,46.4,38,29.92,6.2,West,12.7,-,N/A,,Partly Cloudy,270,2013-03-16 03:00:00
2:17 PM,71.6,46.4,41,29.92,4.3,SW,11.5,-,N/A,Rain,Light Rain Showers,220,2013-03-16 03:17:00
2:21 PM,64.4,55.4,73,29.92,3.7,SW,26.5,-,N/A,Rain,Light Rain Showers,230,2013-03-16 03:21:00
2:30 PM,64.4,57.2,77,29.92,4.3,SW,24.2,-,N/A,Rain,Light Rain Showers,230,2013-03-16 03:30:00
3:00 PM,62,56,75,29.94,6,SW,17.3,,,Rain,Light Rain Showers,230,2013-03-16 04:00:00
3:00 PM,62.6,55.4,77,29.95,6.2,SW,17.3,-,N/A,Rain,Light Rain Showers,230,2013-03-16 04:00:00
3:30 PM,62.6,57.2,82,29.95,6.2,South,12.7,-,N/A,,Mostly Cloudy,190,2013-03-16 04:30:00
3:59 PM,60.8,55.4,82,29.95,4.3,South,9.2,-,N/A,Rain,Heavy Rain Showers,180,2013-03-16 04:59:00
4:00 PM,60.8,57.2,88,29.95,3.1,South,9.2,-,N/A,Rain,Heavy Rain Showers,180,2013-03-16 05:00:00
4:03 PM,57.2,55.4,94,29.95,1.9,South,12.7,26.5,N/A,Rain,Rain Showers,190,2013-03-16 05:03:00
4:19 PM,57.2,57.2,100,29.95,3.1,SSW,17.3,-,N/A,Rain,Light Rain Showers,210,2013-03-16 05:19:00
4:30 PM,57.2,55.4,94,29.95,4.3,SSW,15.0,-,N/A,Rain,Light Rain Showers,210,2013-03-16 05:30:00
5:00 PM,59,55,82,29.96,,SW,11.5,,,,,230,2013-03-16 06:00:00
5:00 PM,59.0,55.4,88,29.95,6.2,SW,11.5,-,N/A,,Mostly Cloudy,230,2013-03-16 06:00:00
5:20 PM,59.0,55.4,88,29.98,4.3,SW,10.4,-,N/A,Rain,Light Rain Showers,220,2013-03-16 06:20:00
5:30 PM,57.2,55.4,94,29.98,3.1,SSW,18.4,-,N/A,Rain,Light Rain Showers,210,2013-03-16 06:30:00
6:00 PM,57,54,88,29.98,4,SSW,15.0,,,Rain,Light Rain Showers,210,2013-03-16 07:00:00
6:00 PM,57.2,55.4,94,29.98,4.3,SSW,15.0,-,N/A,Rain,Light Rain Showers,210,2013-03-16 07:00:00
6:20 PM,59.0,55.4,88,29.98,5.6,SSW,18.4,-,N/A,Rain,Light Rain Showers,210,2013-03-16 07:20:00
6:30 PM,57.2,55.4,94,30.01,6.2,SSW,20.7,-,N/A,Rain,Light Rain Showers,210,2013-03-16 07:30:00
6:41 PM,57.2,53.6,88,30.01,2.5,SSW,21.9,-,N/A,Rain,Light Rain Showers,210,2013-03-16 07:41:00
7:00 PM,55.4,55.4,100,30.01,3.7,SW,16.1,-,N/A,Rain,Light Rain Showers,220,2013-03-16 08:00:00
7:21 PM,55.4,55.4,100,30.01,5.6,SW,11.5,-,N/A,,Mostly Cloudy,230,2013-03-16 08:21:00
7:30 PM,55.4,55.4,100,30.01,6.2,SW,11.5,-,N/A,,Mostly Cloudy,230,2013-03-16 08:30:00
7:42 PM,55.4,55.4,100,30.04,3.1,SW,11.5,-,N/A,Rain,Light Rain Showers,230,2013-03-16 08:42:00
8:00 PM,55.4,53.6,94,30.04,6.2,SSW,15.0,-,N/A,Rain,Light Rain Showers,210,2013-03-16 09:00:00
8:30 PM,55.4,53.6,94,30.04,6.2,WSW,11.5,-,N/A,,Mostly Cloudy,240,2013-03-16 09:30:00
9:00 PM,55,53,90,30.06,12,SW,16.1,,,Rain,Light Rain Showers,220,2013-03-16 10:00:00
9:00 PM,55.4,53.6,94,30.06,6.2,SW,16.1,-,N/A,,Mostly Cloudy,220,2013-03-16 10:00:00
9:30 PM,53.6,51.8,94,30.06,6.2,SW,16.1,-,N/A,,Mostly Cloudy,220,2013-03-16 10:30:00
10:00 PM,53.6,51.8,94,30.06,6.2,SW,11.5,-,N/A,,Mostly Cloudy,230,2013-03-16 11:00:00
10:30 PM,53.6,51.8,94,30.09,3.1,SW,18.4,-,N/A,Rain,Light Rain Showers,230,2013-03-16 11:30:00
11:00 PM,53,50,84,30.11,,SSW,21.9,,,,,210,2013-03-16 12:00:00
11:00 PM,51.8,50.0,94,30.09,3.1,SSW,21.9,-,N/A,Rain-Thunderstorm,Light Thunderstorms and Rain,210,2013-03-16 12:00:00
11:19 PM,53.6,50.0,88,30.09,6.2,SW,15.0,-,N/A,,Mostly Cloudy,230,2013-03-16 12:19:00
11:30 PM,53.6,48.2,82,30.09,6.2,SSW,16.1,-,N/A,,Scattered Clouds,210,2013-03-16 12:30:00